This is the latest recevied weather packets stored in our database for station/object W7TJC. If no packets are shown the sender has not sent any weather packets the latest 10 day(s).
| Time | Temp. | Humidity | Pressure | Rain* | Wind** | Luminosity | Snow |
|---|---|---|---|---|---|---|---|
| 1777632806 | 11.11° C | 85% | 1017.5 hPa | 0 mm | - | 0 W/m² | - |
| 1777632502 | 10.56° C | 84% | 1017.5 hPa | 0 mm | - | 0 W/m² | - |
| 1777632200 | 11.11° C | 85% | 1017.5 hPa | 0 mm | - | 0 W/m² | - |
| 1777631897 | 11.11° C | 85% | 1017.6 hPa | 0 mm | - | 0 W/m² | - |
| 1777631596 | 11.11° C | 85% | 1017.5 hPa | 0 mm | - | 0 W/m² | - |
| 1777631292 | 11.11° C | 84% | 1017.5 hPa | 0 mm | - | 0 W/m² | - |
| 1777630989 | 11.67° C | 83% | 1017.4 hPa | 0 mm | - | 0 W/m² | - |
| 1777630685 | 11.67° C | 82% | 1017.2 hPa | 0 mm | - | 0 W/m² | - |
| 1777630382 | 11.67° C | 82% | 1017.4 hPa | 0 mm | - | 0 W/m² | - |
| 1777630080 | 11.67° C | 84% | 1017.3 hPa | 0 mm | - | 0 W/m² | - |
| 1777629777 | 11.67° C | 82% | 1017.3 hPa | 0 mm | - | 0 W/m² | - |
| 1777629473 | 11.67° C | 82% | 1017.4 hPa | 0 mm | - | 0 W/m² | - |
| 1777629170 | 12.22° C | 81% | 1017.4 hPa | 0 mm | - | 0 W/m² | - |
| 1777628866 | 12.22° C | 81% | 1017.5 hPa | 0 mm | - | 0 W/m² | - |
| 1777628563 | 12.22° C | 80% | 1017.5 hPa | 0 mm | - | 0 W/m² | - |
| 1777628259 | 12.22° C | 79% | 1017.6 hPa | 0 mm | - | 0 W/m² | - |
| 1777627955 | 12.22° C | 79% | 1017.4 hPa | 0 mm | - | 0 W/m² | - |
| 1777627654 | 12.22° C | 79% | 1017.6 hPa | 0 mm | - | 0 W/m² | - |
| 1777627354 | 11.67° C | 80% | 1017.4 hPa | 0 mm | - | 0 W/m² | - |
| 1777627052 | 12.22° C | 81% | 1017.3 hPa | 0 mm | - | 0 W/m² | - |
| 1777626747 | 12.22° C | 80% | 1017.4 hPa | 0 mm | - | 0 W/m² | - |
| 1777626444 | 11.67° C | 81% | 1017.4 hPa | 0 mm | - | 0 W/m² | - |
| 1777626143 | 12.22° C | 81% | 1017.5 hPa | 0 mm | - | 0 W/m² | - |
| 1777625842 | 12.22° C | 80% | 1017.3 hPa | 0 mm | - | 0 W/m² | - |
| 1777625539 | 11.67° C | 81% | 1017.4 hPa | 0 mm | - | 0 W/m² | - |
* Rain latest hour (hover to see other rain measurements)
** Current wind speed in m/s (hover to see current wind gust speed)